Stations météo

réclame
Mon MeteoGroup
Grosseto, Italie (16206): Température de l'air & dewpoint: 13.07.2018 07:00:00 - 19.07.2018 07:00:00 (CEST)Grosseto, Italie (16206): Vitesse du vent: 13.07.2018 07:00:00 - 19.07.2018 07:00:00 (CEST)Grosseto, Italie (16206): Direction du vent: 13.07.2018 07:00:00 - 19.07.2018 07:00:00 (CEST)Grosseto, Italie (16206): reduced air pressure: 13.07.2018 07:00:00 - 19.07.2018 07:00:00 (CEST)Grosseto, Italie (16206): visibility: 13.07.2018 07:00:00 - 19.07.2018 07:00:00 (CEST)
Date & Time tt [°C] td [°C] ff [km/h] ff [knt] dd ppp [hPa] vv [km]
19.07.2018 07:00:00 - - - - - - -
19.07.2018 06:00:00 15,2 13,0 8 4 N 1014,9 20
19.07.2018 05:00:00 17,0 15,0 5 3 NNE 1014,9 20
19.07.2018 04:00:00 17,4 14,1 8 4 N 1014,9 20
19.07.2018 03:00:00 18,2 15,6 5 3 NNE 1015,1 20
19.07.2018 02:00:00 19,0 17,0 5 3 N 1014,9 20
19.07.2018 01:00:00 20,8 18,9 5 3 NE 1014,7 20
19.07.2018 00:00:00 21,2 19,3 4 2 ESE 1014,2 20
18.07.2018 23:00:00 21,8 19,9 4 2 ESE 1014,2 20
18.07.2018 22:00:00 23,6 21,3 5 3 SSE 1014,1 20
18.07.2018 21:00:00 24,4 21,3 11 6 SSW 1014,0 30
18.07.2018 20:00:00 26,6 20,2 18 10 SW 1014,0 50
18.07.2018 19:00:00 28,4 20,7 21 11 SW 1014,1 50
18.07.2018 18:00:00 28,8 22,1 4 2 NNW 1014,5 10
18.07.2018 17:00:00 28,8 22,3 24 13 SW 1014,6 50
18.07.2018 16:00:00 29,8 20,3 28 15 SW 1014,8 50
18.07.2018 15:00:00 30,6 20,0 21 11 SSW 1015,0 50
18.07.2018 14:00:00 30,2 19,6 21 11 SW 1015,2 50
18.07.2018 13:00:00 29,0 18,0 15 8 SW - 10
18.07.2018 12:00:00 30,0 19,0 13 7 SW - 10
18.07.2018 11:00:00 28,4 12,8 4 2 - 1015,3 10
18.07.2018 10:00:00 25,0 16,0 4 2 - - 10
18.07.2018 09:00:00 22,0 17,0 4 2 NNE - 10
18.07.2018 08:00:00 19,0 16,0 4 2 NNW - 10
18.07.2018 07:00:00 16,0 14,0 8 4 N - 10
18.07.2018 06:00:00 16,0 14,2 8 4 N 1014,8 20
18.07.2018 05:00:00 17,0 13,5 5 3 N 1014,8 25
18.07.2018 04:00:00 19,0 14,5 5 3 NNE 1014,9 20
18.07.2018 03:00:00 20,0 15,0 9 5 NNE 1014,6 20
18.07.2018 02:00:00 21,0 15,6 9 5 N 1013,9 20
18.07.2018 01:00:00 22,0 16,5 4 2 N 1014,0 20
18.07.2018 00:00:00 23,0 16,3 4 2 N 1013,8 20
17.07.2018 23:00:00 23,0 17,2 11 6 NE 1013,8 20
17.07.2018 22:00:00 24,0 17,3 15 8 NNW 1013,0 20
17.07.2018 21:00:00 25,8 16,9 9 5 NNW 1012,6 50
17.07.2018 20:00:00 29,0 18,2 11 6 NNW 1012,0 50
17.07.2018 19:00:00 29,8 18,3 21 11 NW 1011,8 50
17.07.2018 18:00:00 30,0 18,8 24 13 W 1011,8 50
17.07.2018 17:00:00 30,4 19,4 24 13 W 1011,8 50
17.07.2018 16:00:00 30,8 18,9 21 11 W 1011,8 50
17.07.2018 15:00:00 30,6 13,8 16 9 N 1011,8 10
17.07.2018 14:00:00 30,0 13,7 13 7 N 1011,8 50
17.07.2018 13:00:00 29,6 14,6 13 7 N 1012,0 50
17.07.2018 12:00:00 27,8 13,7 18 10 N 1011,8 50
17.07.2018 11:00:00 27,0 16,9 18 10 NNE 1011,6 40
17.07.2018 10:00:00 24,2 16,7 11 6 N 1011,6 30
17.07.2018 09:00:00 22,6 17,5 11 6 N 1011,1 30
17.07.2018 08:00:00 20,4 17,0 9 5 NE 1011,0 25
17.07.2018 07:00:00 19,4 16,4 8 4 E 1010,7 20
17.07.2018 06:00:00 18,0 15,2 9 5 NE 1010,2 20
17.07.2018 05:00:00 18,0 14,7 11 6 N 1009,9 15
17.07.2018 04:00:00 18,0 14,5 9 5 NNW 1009,8 15
17.07.2018 03:00:00 19,0 15,5 9 5 N 1009,8 10
17.07.2018 02:00:00 18,8 15,5 8 4 N 1009,8 10
17.07.2018 01:00:00 22,2 17,8 21 11 NNW 1009,8 10
17.07.2018 00:00:00 23,6 19,5 21 11 W 1009,7 8
16.07.2018 23:00:00 26,0 23,3 22 12 S 1009,6 8
16.07.2018 22:00:00 25,8 23,1 21 11 S 1009,6 8
16.07.2018 21:00:00 27,6 21,9 29 16 S 1009,3 10
16.07.2018 20:00:00 27,0 21,3 16 9 S 1009,7 15
16.07.2018 19:00:00 29,0 22,7 21 11 S 1010,7 15
16.07.2018 18:00:00 29,0 21,5 26 14 SSE 1010,0 15
16.07.2018 17:00:00 30,0 23,2 29 16 SSE 1010,1 15
16.07.2018 16:00:00 30,0 19,7 21 11 SSE 1010,9 15
16.07.2018 15:00:00 30,0 21,1 18 10 SSE 1011,0 15
16.07.2018 14:00:00 29,8 21,7 26 14 SSE 1011,9 15
16.07.2018 13:00:00 29,0 24,8 26 14 SE 1013,6 10
16.07.2018 12:00:00 27,8 23,8 21 11 S 1014,3 15
16.07.2018 11:00:00 28,2 18,3 5 3 SSE 1013,8 25
16.07.2018 10:00:00 26,6 19,5 9 5 NNE 1013,4 25
16.07.2018 09:00:00 24,0 17,0 9 5 NNE 1013,8 20
16.07.2018 08:00:00 21,0 16,4 5 3 NNE 1014,1 20
16.07.2018 07:00:00 19,0 17,3 9 5 NE 1013,9 20
16.07.2018 06:00:00 18,0 16,3 5 3 N 1013,9 20
16.07.2018 05:00:00 20,0 16,4 4 2 ENE 1013,9 20
16.07.2018 04:00:00 19,0 17,0 11 6 NNE 1013,9 20
16.07.2018 03:00:00 20,0 18,0 8 4 NNW 1013,9 20
16.07.2018 02:00:00 21,0 18,8 8 4 NNE 1013,9 20
16.07.2018 01:00:00 23,0 19,8 4 2 N 1014,7 20
16.07.2018 00:00:00 24,0 20,1 2 1 E 1014,9 20
15.07.2018 23:00:00 24,0 19,5 4 2 N 1014,0 20
15.07.2018 22:00:00 25,0 20,0 8 4 N 1013,8 20
15.07.2018 21:00:00 28,4 21,4 11 6 NW 1013,7 25
15.07.2018 20:00:00 30,0 21,1 13 7 WSW 1013,6 25
15.07.2018 19:00:00 31,2 20,2 21 11 WSW 1013,2 25
15.07.2018 18:00:00 33,0 19,5 21 11 WSW 1013,2 25
15.07.2018 17:00:00 33,4 17,2 18 10 WSW 1013,4 25
15.07.2018 16:00:00 33,8 17,5 21 11 WSW 1013,7 25
15.07.2018 15:00:00 34,0 17,2 18 10 W 1013,7 30
15.07.2018 14:00:00 33,0 21,5 15 8 SSW 1013,8 30
15.07.2018 13:00:00 32,0 20,3 13 7 S 1013,9 25
15.07.2018 12:00:00 30,4 18,8 5 3 SSE 1014,1 25
15.07.2018 11:00:00 28,6 16,9 4 2 SW 1014,5 25
15.07.2018 10:00:00 26,2 19,8 18 10 SSW 1014,4 15
15.07.2018 09:00:00 23,4 16,9 9 5 N 1014,5 15
15.07.2018 08:00:00 20,4 16,6 8 4 ENE 1013,7 30
15.07.2018 07:00:00 16,8 15,3 5 3 E 1013,8 30
15.07.2018 06:00:00 17,0 15,4 5 3 N 1013,8 30
15.07.2018 05:00:00 18,0 16,0 8 4 N 1013,8 20
15.07.2018 04:00:00 19,4 16,1 9 5 N 1013,9 20
15.07.2018 03:00:00 - - - - - - -
15.07.2018 02:00:00 20,0 17,4 5 3 NE 1014,6 10
15.07.2018 01:00:00 20,4 17,4 9 5 N 1014,6 20
15.07.2018 00:00:00 22,6 19,0 4 2 NE 1014,9 20
14.07.2018 23:00:00 24,0 19,9 4 2 E 1015,0 20
14.07.2018 22:00:00 23,8 19,7 5 3 NNE 1014,7 30
14.07.2018 21:00:00 26,0 20,8 4 2 W 1014,7 20
14.07.2018 20:00:00 26,6 20,2 5 3 SSW 1014,7 20
14.07.2018 19:00:00 28,0 19,5 15 8 SW 1014,9 20
14.07.2018 18:00:00 29,0 19,4 18 10 SW 1014,9 20
14.07.2018 17:00:00 29,0 19,4 22 12 SW 1014,9 20
14.07.2018 16:00:00 31,0 17,7 21 11 SW 1015,4 20
14.07.2018 15:00:00 30,0 16,4 15 8 WSW 1015,4 20
14.07.2018 14:00:00 31,8 16,1 18 10 SW 1015,8 20
14.07.2018 13:00:00 32,0 16,3 21 11 SSW 1016,2 20
14.07.2018 12:00:00 31,0 13,8 4 2 N 1016,9 20
14.07.2018 11:00:00 30,0 16,1 5 3 S 1017,4 30
14.07.2018 10:00:00 28,0 17,2 5 3 NE 1017,7 30
14.07.2018 09:00:00 24,2 17,2 5 3 NNE 1017,7 25
14.07.2018 08:00:00 21,2 16,6 9 5 NE 1017,6 20
14.07.2018 07:00:00 19,0 16,4 9 5 NNE 1018,2 25
14.07.2018 06:00:00 17,0 14,8 5 3 E 1017,0 20
14.07.2018 05:00:00 17,4 15,2 9 5 NE 1017,0 20
14.07.2018 04:00:00 17,8 15,8 5 3 WNW 1017,4 15
14.07.2018 03:00:00 18,0 15,8 4 2 NNE 1017,4 20
14.07.2018 02:00:00 18,4 15,8 4 2 N 1018,6 20
14.07.2018 01:00:00 20,0 18,0 4 2 NNE 1018,6 20
14.07.2018 00:00:00 20,2 18,2 4 2 N 1017,6 20
13.07.2018 23:00:00 21,8 20,1 4 2 E 1017,6 20
13.07.2018 22:00:00 22,8 21,4 4 2 ESE 1016,8 15
13.07.2018 21:00:00 24,6 22,3 11 6 SW 1016,6 40
13.07.2018 20:00:00 26,6 21,8 18 10 WSW 1016,7 40
13.07.2018 19:00:00 28,2 20,2 18 10 SW 1016,7 40
13.07.2018 18:00:00 29,0 20,7 22 12 SW 1016,8 40
13.07.2018 17:00:00 29,6 20,2 24 13 SW 1017,0 40
13.07.2018 16:00:00 30,0 18,4 24 13 SW 1017,2 40
13.07.2018 15:00:00 30,6 18,4 21 11 SW 1017,3 40
13.07.2018 14:00:00 30,4 17,5 18 10 SW 1017,7 40
13.07.2018 13:00:00 30,4 16,4 16 9 SW 1017,8 40
13.07.2018 12:00:00 30,0 16,8 13 7 SW 1017,9 40
13.07.2018 11:00:00 28,8 16,7 5 3 S 1017,8 40
13.07.2018 10:00:00 27,0 18,8 4 2 ESE 1017,7 40
13.07.2018 09:00:00 25,2 18,7 9 5 NE 1017,6 30
13.07.2018 08:00:00 21,2 17,6 5 3 ENE 1017,6 20
13.07.2018 07:00:00 18,2 16,5 8 4 N 1017,1 20

tt = Température de l'air
td = dewpoint
ff = Vitesse du vent
dd = Direction du vent
ppp = reduced air pressure
vv = visibility

stations d'obs. à proximité